Flag for Germany Weather past 2 weeks in Schwedt/Oder, Brandenburg, Germany

Now
41 °F

Scattered clouds.


Feels Like: 39 °F
Forecast: 32 / 43 °F
Wind: 3 mph from West

Location: Szczecin Airport

Current Time: Feb 28, 2015 at 5:32:53 PM

Latest Report: Feb 28, 2015 at 5:00 PM


Visibility: N/A

Pressure: 30.04 "Hg

Humidity: 66%

Dew point: 30 °F

Location of Schwedt/OderLocation

Historic Weather in Schwedt/Oder — Graph

°F

Schwedt/Oder temperature yesterday

Maximum temperature yesterday: 45 °F (at 11:30 AM)
Minimum temperature yesterday: 34 °F (at 2:00 AM)
Average temperature yesterday: 38 °F

Past Weeks' High & Low Weather Summary

 TemperatureHumidityPressure
High50 °F (Feb 21, 1:00 PM)100% (Feb 13, 8:00 PM)30.66 "Hg (Feb 13, 8:00 PM)
Low23 °F (Feb 26, 7:30 AM)4% (Feb 16, 1:00 AM)29.33 "Hg (Feb 21, 2:00 PM)
Average36 °F79%30.02 "Hg
* Reported Feb 13 4:30 PM — Feb 28 4:30 PM, Schwedt/Oder, Weather by CustomWeather, © 2015

Note: Actual official high and low records may vary slightly from our data, if they occured in-between our weather recording intervals... More about our weather records

Advertising

Schwedt/Oder weather history for previous 24 hours

 ConditionsComfort  
Time TempWeatherWind HumidityBarometerVisibility
4:30 PM
Sat, Feb 28
41 °FScattered clouds.3 mph70%30.04 "HgN/A
4:00 PM41 °FPartly sunny.3 mph70%30.04 "HgN/A
3:30 PM41 °FPartly sunny.5 mph76%30.04 "HgN/A
3:00 PM41 °FBroken clouds.8 mph81%30.04 "HgN/A
2:30 PM41 °FBroken clouds.7 mph81%30.04 "HgN/A
2:00 PM41 °FPartly sunny.8 mph81%30.04 "HgN/A
1:30 PM41 °FBroken clouds.6 mph81%30.04 "HgN/A
1:00 PM39 °FBroken clouds.7 mph93%30.07 "Hg5 mi
12:30 PM39 °FBroken clouds.6 mph100%30.07 "Hg4 mi
12:00 PM37 °FFog.6 mph100%30.07 "Hg3 mi
11:30 AM37 °FFog.7 mph93%30.07 "Hg2 mi
11:00 AM36 °FLight rain. Fog.3 mph100%30.04 "Hg1 mi
10:30 AM36 °FLight rain. Fog.3 mph93%30.04 "Hg1 mi
10:00 AM34 °FLight rain. Fog.3 mph100%30.04 "Hg1 mi
9:30 AM34 °FLight rain. Fog.3 mph100%30.04 "Hg1 mi
9:00 AM34 °FLight snow. Fog.5 mph93%30.04 "Hg1 mi
8:30 AM32 °FLight snow. Fog.3 mph100%30.04 "Hg1 mi
8:00 AM32 °FLight snow. Fog.3 mph100%30.04 "Hg1 mi
7:30 AM32 °FLight snow. Fog.3 mph100%30.01 "Hg0 mi
7:00 AM32 °FLight snow. Fog.3 mph100%30.01 "Hg0 mi
6:30 AM32 °FIce fog.3 mph100%30.01 "Hg0 mi
6:00 AM32 °FIce fog.3 mph100%30.01 "Hg0 mi
5:30 AM32 °FIce fog.3 mph100%30.01 "Hg0 mi
5:00 AM32 °FIce fog.3 mph100%29.98 "Hg1 mi
4:30 AM32 °FIce fog.3 mph100%29.98 "Hg0 mi
4:00 AM32 °FIce fog.6 mph93%29.98 "Hg1 mi
3:30 AM32 °FIce fog.3 mph93%29.98 "Hg1 mi
3:00 AM32 °FIce fog.5 mph100%29.98 "Hg1 mi
2:30 AM36 °FFog.3 mph93%29.98 "Hg1 mi
2:00 AM32 °FIce fog.3 mph100%29.98 "Hg1 mi
1:30 AM36 °FFog.3 mph93%29.98 "Hg1 mi
1:00 AM36 °FFog.3 mph93%29.98 "Hg1 mi
12:30 AM36 °FFog.5 mph100%29.98 "Hg1 mi
12:00 AM37 °FFog.3 mph93%29.98 "Hg1 mi
11:30 PM
Fri, Feb 27
36 °FFog.5 mph93%29.98 "Hg1 mi
11:00 PM34 °FFog.5 mph93%29.98 "Hg1 mi
10:30 PM37 °FFog.5 mph93%29.95 "Hg1 mi
10:00 PM37 °FFog.5 mph93%29.98 "Hg2 mi
9:30 PM37 °FFog.3 mph93%29.95 "Hg2 mi
9:00 PM36 °FFog.3 mph93%29.95 "Hg2 mi
8:30 PM37 °FFog.3 mph93%29.95 "Hg2 mi
8:00 PM36 °FFog.3 mph93%29.95 "Hg2 mi
7:30 PM34 °FFog.3 mph93%29.95 "Hg2 mi
7:00 PM36 °FFog.3 mph93%29.95 "Hg2 mi
6:30 PM36 °FFog.No wind87%29.95 "Hg3 mi
6:00 PM37 °FFog.2 mph87%29.95 "Hg3 mi
5:30 PM41 °FFog.2 mph81%29.92 "Hg3 mi
5:00 PM43 °FClear.5 mph76%29.92 "Hg5 mi
Weather by CustomWeather, © 2015

See weather overviewHow to use our weather pages